Cherry Point, NC

11:58 PM EST on February 24, 2018 (GMT -0500)
Cherry Point Marine Corps Air Station

Weather History for KNKT - December, 2013

Change the Weather History Date:

Sunday, December 8, 2013

  Actual Average Record
Temperature  
Mean Temperature 44 °F -  
Max Temperature 45 °F 58 °F 78 °F (2001)
Min Temperature 42 °F 39 °F 19 °F (2010)
Degree Days  
Heating Degree Days 22    
Moisture  
Dew Point 40 °F    
Average Humidity 88    
Maximum Humidity 93    
Minimum Humidity 76    
Precipitation  
Precipitation 0.06 in - - ()
Sea Level Pressure  
Sea Level Pressure 30.35 in    
Wind  
Wind Speed 14 mph (North)    
Max Wind Speed 20 mph    
Max Gust Speed 24 mph    
Visibility 6 miles    
Events Rain    
Averages and records for this station are not official NWS values.
T = Trace of Precipitation, MM = Missing Value Source: NWS Daily Summary

Daily Weather History Graph

Daily Weather History Graph

Search for Another Location

Airport or City:

Trip Planner

Search our weather history database for the weather conditions in past years. The results will help you decide how hot, cold, wet, or windy it might be!

Date:

Astronomy

Dec. 08, 2013 Rise Set
Actual Time 7:02 AM EST 4:56 PM EST
Civil Twilight 6:35 AM EST 5:24 PM EST
Nautical Twilight 6:03 AM EST 5:55 PM EST
Astronomical Twilight 5:32 AM EST 6:26 PM EST
Moon 11:33 AM EST (12/8) 11:31 PM EST (12/8)
Length of Visible Light 10h 49m
Length of Day
9h 53m
Waxing Crescent, 40% of the Moon is Illuminated
Dec 8
Waxing Crescent
Dec 9
First Quarter
Dec 17
Full
Dec 25
Last Quarter
Jan 1
New

Hourly Weather History & Observations

Time (EST) Temp. Windchill Dew Point Humidity Pressure Visibility Wind Dir Wind Speed Gust Speed Precip Events Conditions
12:54 AM 45.0 °F 37.9 °F 37.9 °F 76% 30.40 in 10.0 mi NNE 16.1 mph - N/A   Overcast
1:01 AM 45.0 °F 37.9 °F 37.9 °F 76% 30.40 in 10.0 mi NNE 16.1 mph 24.2 mph N/A   Overcast
1:54 AM 44.1 °F 36.8 °F 37.9 °F 79% 30.39 in 10.0 mi NNE 16.1 mph - N/A   Overcast
2:50 AM 42.8 °F 34.3 °F 39.2 °F 87% 30.39 in 3.0 mi NNE 19.6 mph - 0.00 in Rain Light Rain
2:54 AM 42.1 °F 34.2 °F 39.0 °F 89% 30.38 in 3.0 mi NNE 16.1 mph - 0.00 in Rain Light Rain
3:31 AM 42.1 °F 33.9 °F 39.0 °F 89% 30.39 in 4.0 mi NNE 17.3 mph - 0.00 in Rain Light Rain
3:54 AM 42.1 °F 34.2 °F 39.0 °F 89% 30.37 in 3.0 mi NNE 16.1 mph - 0.01 in Rain Light Rain
4:54 AM 42.1 °F 34.9 °F 39.0 °F 89% 30.38 in 7.0 mi NNE 13.8 mph - 0.00 in Rain Light Rain
5:54 AM 42.1 °F 34.9 °F 39.0 °F 89% 30.37 in 4.0 mi NNE 13.8 mph - 0.01 in Rain Light Rain
6:54 AM 43.0 °F 36.4 °F 39.9 °F 89% 30.39 in 3.0 mi North 12.7 mph - 0.00 in Rain Light Rain
7:47 AM 43.0 °F 36.4 °F 39.9 °F 89% 30.40 in 2.0 mi NNE 12.7 mph - 0.01 in   Overcast
7:54 AM 43.0 °F 36.4 °F 39.9 °F 89% 30.39 in 2.0 mi NNE 12.7 mph - 0.01 in   Overcast
8:12 AM 43.0 °F 36.4 °F 41.0 °F 93% 30.39 in 3.0 mi NNE 12.7 mph - 0.00 in Rain Light Rain
8:54 AM 42.1 °F 34.9 °F 39.9 °F 92% 30.38 in 8.0 mi North 13.8 mph - 0.03 in Rain Light Rain
9:54 AM 42.1 °F 35.2 °F 39.0 °F 89% 30.40 in 10.0 mi North 12.7 mph - 0.00 in   Overcast
10:54 AM 42.1 °F 35.7 °F 39.0 °F 89% 30.39 in 9.0 mi NNE 11.5 mph - N/A   Overcast
11:54 AM 43.0 °F 36.8 °F 39.9 °F 89% 30.35 in 10.0 mi North 11.5 mph - N/A   Overcast
12:54 PM 44.1 °F 38.1 °F 41.0 °F 89% 30.31 in 10.0 mi North 11.5 mph - N/A   Overcast
1:54 PM 45.0 °F 40.1 °F 41.0 °F 86% 30.30 in 10.0 mi North 9.2 mph - N/A   Overcast
2:54 PM 44.1 °F 37.4 °F 41.0 °F 89% 30.31 in 3.0 mi North 13.8 mph - N/A   Overcast
3:54 PM 44.1 °F 37.7 °F 41.0 °F 89% 30.29 in 8.0 mi NNE 12.7 mph - N/A   Overcast
4:54 PM 45.0 °F 39.7 °F 41.0 °F 86% 30.29 in 10.0 mi NNE 10.4 mph - N/A   Overcast
5:54 PM 44.1 °F 37.7 °F 41.0 °F 89% 30.31 in 10.0 mi North 12.7 mph - N/A   Overcast
6:54 PM 44.1 °F 37.7 °F 41.0 °F 89% 30.31 in 10.0 mi NNE 12.7 mph - N/A   Overcast
7:54 PM 44.1 °F 39.0 °F 41.0 °F 89% 30.30 in 10.0 mi North 9.2 mph - N/A   Overcast
8:54 PM 44.1 °F 40.1 °F 41.0 °F 89% 30.30 in 9.0 mi North 6.9 mph - N/A   Overcast
9:54 PM 44.1 °F 41.5 °F 41.0 °F 89% 30.29 in 4.0 mi North 4.6 mph - N/A   Overcast
10:54 PM 44.1 °F 40.8 °F 42.1 °F 93% 30.29 in 4.0 mi NW 5.8 mph - N/A   Overcast
11:05 PM 44.1 °F 41.5 °F 42.1 °F 93% 30.29 in 4.0 mi NW 4.6 mph - N/A   Overcast
11:16 PM 44.1 °F 41.5 °F 42.1 °F 93% 30.29 in 4.0 mi NW 4.6 mph - N/A   Overcast
11:54 PM 44.1 °F 39.5 °F 42.1 °F 93% 30.27 in 5.0 mi NW 8.1 mph - N/A   Overcast